Погода в Стерлитамаке

Погода в Стерлитамаке : погода сейчас, прогноз погоды и архив. Всё, что Вы хотите узнать о погоде в Стерлитамаке!

Хотите узнать прогноз погоды в Стерлитамаке? Тогда Вам сюда: Погода в Стерлитамаке

Поиск расширенной информации на нашем сайте:

Другие новости

Новости СМИ2

Главная страница сайта

Новости сайта

03.07.2017

Напоминаем, что на нашем специализированном сайте Метеоцентр.Азия вы можете получить высокодетализированные автоматические прогнозы погоды по пунктам России, СНГ и мира в авиационном формате (включающие направление и скорость ветра, видимость, явления погоды, количество и форму облачности, нижнюю и верхнюю границу облачности).

Рекомендуем: см тут аренда офиса в бп курский арма завод Нижний Сусальный пер. на выгодных условиях

Погода в Стерлитамаке - сегодня

Время (UTC), дата Ветер
(°,м/с) 
Видим.   Явления Облачность Т
(°С)
Тd
(°С)
f(%) Тe
(°С)
Pmin
(гПа)
dP
(гПа)
Po
(мм)
O2
(г/м3)
Тmin Tmax R s Состояние
почвы
06 17.08.17 040 (СВ) 20000 м    ясно 
+21.7 +13.8 61 +28  1025.4  757  280           
09 17.08.17 060 (СВ) 20000 м    1/1 1000 м 
[Cu hum]
+24.7 +10.8 42 +27  1024.8  -0.4  757  278           
12 17.08.17 020 (С) 20000 м    1/1 1000 м 
[Cu hum]
+24.8 +10.6 41 +27  1024  -0.7  756  277           
15 17.08.17 020 (С) 20000 м    ясно 
+22.3 +8 40 +22  1024.5  0.2  756  280    +25.3       
18 17.08.17 360 (С) 10 км    ясно 
+17.4 +9.5 60 +18  1025.1  0.4  757  285           
21 17.08.17 020 (С) 10 км    3/0 средняя 
[Ac trans]
+15 +9.6 70 +17  1024.9  -0.3  756  287           
00 18.08.17 030 (СВ) 10 км    3/0 средняя 
[Ac trans]
+13.8 +8.6 71 +14  1024.8  0.1  756  289           
03 18.08.17 030 (СВ) 20000 м    3/3 1000 м средняя 
[Sc|Ac trans]
+14.6 +9.3 70 +15  1025.4  0.6  757  288  +13.2        сухая 
06 18.08.17 080 (В) 20000 м    ясно 
+21.4 +11.4 53 +24  1025  757  281           
09 18.08.17 010 (С) 20000 м    3/3 1000 м верхняя 
[Cu hum|Ci fib]
+24.7 +12.4 46 +29  1024.3  -0.5  756  277           
12 18.08.17 070 (В) 20000 м    4/3 1000 м верхняя 
[Cu med, cong|Ci fib]
+26.2 +12.7 43 +31  1023.2  -1  756  275           
15 18.08.17 040 (СВ) 20000 м    3/0 верхняя 
[Ci fib]
+23.4 +13.1 52 +29  1023.3  0.1  755  278    +26.4       
18 18.08.17 030 (СВ) 10 км    ясно 
+19.8 +10.8 56 +23  1024.2  0.7  756  282           
21 18.08.17 020 (С) 10 км    ясно 
+16.6 +9.9 65 +19  1024.3  0.1  756  285           
00 19.08.17 030 (СВ) 10 км    4/4 1000 м 
[Sc]
+14.9 +9.5 70 +16  1024.6  0.3  756  287           
03 19.08.17 030 (СВ) 20000 м    3/3 1000 м 
[Sc]
+15.2 +9.5 69 +16  1025.3  0.7  757  287  +14.1        сухая 
06 19.08.17 040 (СВ) 20000 м    ясно 
+21.1 +11.4 54 +24  1025  757  281           
09 19.08.17 060 (СВ) 20000 м    ясно 
+24.9 +10.6 41 +27  1024.2  -0.6  756  277           
12 19.08.17 060 (СВ) 20000 м    ясно 
+25.9 +11.5 41 +29  1023.7  -0.4  756  276           
15 19.08.17 050 (СВ) 10 км    ясно 
+22.7 +9.3 42 +23  1023.9  756  280    +26       
18 19.08.17 030 (СВ) 10 км    ясно 
+18 +7.3 50 +19  1024.5  0.3  756  285           
21 19.08.17 тихо ()   10 км    ясно 
+11.6 +8.5 81 +12  1024.9  756  291           
00 20.08.17 тихо ()   10 км    ясно 
+10.1 +7.6 84 +10  1025.1  0.1  756  293           
03 20.08.17 040 (СВ) 10 км    8/0 верхняя 
[Cc]
+13.1 +7.7 70 +14  1025.4  0.5  757  290  +9.6        сухая 
06 20.08.17 350 (С) 10 км    10/0 верхняя 
[Ci sp]
+17.9 +9.2 57 +19  1025.3  0.2  757  285           
Время (UTC), дата Ветер
(°,м/с) 
Видим.   Явления Облачность Т
(°С)
Тd
(°С)
f(%) Тe
(°С)
Pmin
(гПа)
dP
(гПа)
Po
(мм)
O2
(г/м3)
Тmin Tmax R s Состояние
почвы

Для получения пояснительной информации подведите курсор к названию столбца.

ПОГОДА в Стерлитамаке - архив

Всё, что Вы хотите узнать о погоде в Стерлитамаке - удобно и подробно!

Выберите нужную дату (начиная с 1 января 2015* года) и нажмите кнопку "Найти".
Будут отображены архивные сводки погоды по пункту Стерлитамак, начиная с указанной даты.


Отображать данные в формате CSV (для использования в таблицах Excel)


Внимание! Наш архив погоды предназначен исключительно для личного некоммерческого использования в познавательных целях. Если Вам необходимы официальные справки о состоянии погоды (для производственных, юридических, коммерческих и т.п. целей), обращайтесь в органы Росгидромета.

*Примечание: данная дата относится к архиву по метеостанциям СССР (Россия, СНГ, Балтия).
Архив по метеостанциям Зарубежной Европы и Азии (кроме Китая) хранится 10 дней, по другим регионам земного шара (Китай, Африка, Америка, Австралия, Океания) - 1 день.

Стерлитамак - район местоположения метеостанции


Название, широта, долгота, высота метеостанции:
Стерлитамак 53.6°ш. 56°д. 137 м над ур. моря [Российская Федерация]

Дополнительная информация

В oтличие oт бoльшинства пoгoдных сайтoв мы публикуем пoдрoбную метеoинфoрмацию в детальнoм прoфессиoнальнoм фoрмате.

Характеристики температуры и влажнoсти вoздуха измеряются на высoте 2 м в тени вдали oт зданий и деревьев.
Скoрoсть ветра измеряется на высoте 10 м (на урoвне рoста челoвека скoрoсть ветра ниже в 1.5-2 раза). Если метеoстанция нахoдится в гoрoде или в лесу, тo скoрoсть ветра занижена на 2-4 м/с пo сравнению с oткрытым местoм. Скoрoсть ветра над акватoриями крупных рек и oзёр, а также на вершинах хoлмoв на 2-5 м/с выше, чем в oбычных услoвиях.
Атмoсфернoе давление в разных тoчках местнoсти мoжет значительнo oтличаться oт давления на метеoстанции, в зависимoсти oт услoвий рельефа (при пoдъёме на 10 м давление пoнижается примернo на 1 мм рт.ст.).